[TLELIST] Archives

 

[list_settings.list_name] Current TLEs

October 30th 2021 PDT

HST 1 20580U 90037B 21302.59330744 .00001578 00000-0 84258-4 0 9999 2 20580 28.4700 257.4259 0002840 70.9038 92.0822 15.09806334531554 ISS (ZARYA) 1 25544U 98067A 21303.35093816 .00005689 00000-0 11193-3 0 9990 2 25544 51.6443 34.3860 0003891 156.4010 316.6464 15.48845020309545 CXO 1 25867U 99040B 21302.97983705 .00001063 00000-0 00000+0 0 9995 2 25867 51.8141 249.3499 8525668 227.6912 0.2441 0.37808647 22085 ____________________________________________________________________ These 2-Line ...Continue Reading

[list_settings.list_name] Current TLEs

October 29th 2021 PDT

HST 1 20580U 90037B 21301.60180757 .00001261 00000-0 65096-4 0 9995 2 20580 28.4700 263.9879 0002820 60.8255 102.3837 15.09802739531131 ISS (ZARYA) 1 25544U 98067A 21302.20417510 .00005398 00000-0 10669-3 0 9998 2 25544 51.6447 40.0551 0003988 152.3277 42.3612 15.48830090309366 CXO 1 25867U 99040B 21302.97983705 .00001063 00000-0 00000+0 0 9995 2 25867 51.8141 249.3499 8525668 227.6912 0.2441 0.37808647 22085 ____________________________________________________________________ These 2-Line ...Continue Reading

[list_settings.list_name] Current TLEs

October 28th 2021 PDT

HST 1 20580U 90037B 21301.26906334 .00001279 00000-0 66193-4 0 9992 2 20580 28.4700 266.1901 0002811 57.5891 93.4740 15.09802241531356 ISS (ZARYA) 1 25544U 98067A 21301.23978222 .00003923 00000-0 79846-4 0 9997 2 25544 51.6450 44.8258 0003990 147.3293 66.5615 15.48812559309216 CXO 1 25867U 99040B 21302.97983705 .00001063 00000-0 00000+0 0 9995 2 25867 51.8141 249.3499 8525668 227.6912 0.2441 0.37808647 22085 ____________________________________________________________________ These 2-Line ...Continue Reading

[list_settings.list_name] Current TLEs

October 27th 2021 PDT

HST 1 20580U 90037B 21299.26218955 .00001033 00000-0 51390-4 0 9994 2 20580 28.4702 279.4720 0002753 37.0218 344.4969 15.09797666530787 ISS (ZARYA) 1 25544U 98067A 21300.37589350 .00002672 00000-0 57025-4 0 9996 2 25544 51.6442 49.0977 0003933 144.9661 288.9365 15.48799587309083 CXO 1 25867U 99040B 21300.33547983 .00000976 00000-0 00000-0 0 9990 2 25867 51.8792 249.4780 8521708 227.6380 0.3325 0.37804997 10938 ____________________________________________________________________ These 2-Line ...Continue Reading

[list_settings.list_name] Current TLEs

October 26th 2021 PDT

HST 1 20580U 90037B 21299.07374097 .00000962 00000-0 47068-4 0 9990 2 20580 28.4702 280.7191 0002744 35.0446 40.1751 15.09797036531012 ISS (ZARYA) 1 25544U 98067A 21299.23679509 .00002448 00000-0 52948-4 0 9994 2 25544 51.6442 54.7307 0003882 142.4835 55.9903 15.48790990308901 CXO 1 25867U 99040B 21300.33547983 .00000976 00000-0 00000-0 0 9990 2 25867 51.8792 249.4780 8521708 227.6380 0.3325 0.37804997 10938 ____________________________________________________________________ These 2-Line ...Continue Reading

[list_settings.list_name] Current TLEs

October 25th 2021 PDT

HST 1 20580U 90037B 21297.70170484 .00000851 00000-0 40358-4 0 9994 2 20580 28.4704 289.7995 0002709 20.5499 142.5041 15.09794529530543 ISS (ZARYA) 1 25544U 98067A 21297.87200865 .00004068 00000-0 82553-4 0 9992 2 25544 51.6439 61.4842 0004404 140.4960 3.4198 15.48788699308697 CXO 1 25867U 99040B 21300.33547983 .00000976 00000-0 00000-0 0 9990 2 25867 51.8792 249.4780 8521708 227.6380 0.3325 0.37804997 10938 ____________________________________________________________________ These 2-Line ...Continue Reading

[list_settings.list_name] Current TLEs

October 24th 2021 PDT

HST 1 20580U 90037B 21296.71025661 .00000853 00000-0 40503-4 0 9994 2 20580 28.4705 296.3611 0002690 10.0580 153.5343 15.09793157530393 ISS (ZARYA) 1 25544U 98067A 21297.41238546 .00004483 00000-0 90138-4 0 9998 2 25544 51.6436 63.7521 0003992 135.6595 323.8833 15.48786744308621 CXO 1 25867U 99040B 21297.68976115 .00000860 00000-0 00000-0 0 9998 2 25867 51.9390 249.5968 8517819 227.5915 0.2143 0.37805014 10931 ____________________________________________________________________ These 2-Line ...Continue Reading

[list_settings.list_name] Current TLEs

October 23rd 2021 PDT

HST 1 20580U 90037B 21295.71867429 .00000838 00000-0 39611-4 0 9990 2 20580 28.4706 302.9236 0002643 359.4905 163.9148 15.09791677530247 ISS (ZARYA) 1 25544U 98067A 21296.16607639 .00004743 00000-0 94926-4 0 9990 2 25544 51.6432 69.9148 0004112 134.2458 211.7840 15.48775716308426 CXO 1 25867U 99040B 21297.68976115 .00000860 00000-0 00000-0 0 9998 2 25867 51.9390 249.5968 8517819 227.5915 0.2143 0.37805014 10931 ____________________________________________________________________ These 2-Line ...Continue Reading

[list_settings.list_name] Current TLEs

October 22nd 2021 PDT

HST 1 20580U 90037B 21294.39035668 .00000865 00000-0 41204-4 0 9996 2 20580 28.4708 311.7144 0002586 345.1049 144.2511 15.09789935530040 ISS (ZARYA) 1 25544U 98067A 21295.47861339 .00004477 00000-0 90083-4 0 9996 2 25544 51.6426 73.3143 0004199 134.4858 336.0083 15.48767491308324 CXO 1 25867U 99040B 21295.04551238 .00000772 00000-0 00000+0 0 9992 2 25867 52.0064 249.7202 8512922 227.5442 0.2825 0.37805994 22059 ____________________________________________________________________ These 2-Line ...Continue Reading

[list_settings.list_name] Current TLEs

October 21st 2021 PDT

HST 1 20580U 90037B 21294.18237332 .00000873 00000-0 41731-4 0 9999 2 20580 28.4708 313.0909 0002577 342.8147 93.8597 15.09789664530274 ISS (ZARYA) 1 25544U 98067A 21294.50474988 .00000988 00000-0 26307-4 0 9990 2 25544 51.6428 78.1322 0003884 128.4355 308.6443 15.48754023308178 CXO 1 25867U 99040B 21295.04551238 .00000772 00000-0 00000+0 0 9992 2 25867 52.0064 249.7202 8512922 227.5442 0.2825 0.37805994 22059 ____________________________________________________________________ These 2-Line ...Continue Reading
  • This mailing list is a public mailing list - anyone may join or leave, at any time.
  • This mailing list is announce-only.

International Space Station (ISS) / Hubble Space Telescope (HST) / Chandra X-Ray Observatory Orbital Data via EMAIL

Privacy Policy:

Private list